Tracking 27122 objects as of 24-Mar-2023
HD Live streaming from Space Station
objects crossing your sky now

STARLINK-3457

Track STARLINK-3457 now!
10-day predictions
STARLINK-3457 is classified as:


NORAD ID: 51754
Int'l Code: 2022-016AS
Perigee: 545.8 km
Apogee: 547.8 km
Inclination: 53.2 °
Period: 95.4 minutes
Semi major axis: 6917 km
RCS: Unknown
Launch date: February 21, 2022
Source: United States (US)
Launch site: AIR FORCE EASTERN TEST RANGE (AFETR)
Your satellite tracking list
Your tracking list is empty




NASA's NSSDC Master Catalog

Two Line Element Set (TLE):
1 51754U 22016AS  23083.25538092  .00009300  00000-0  60114-3 0  9990
2 51754  53.2140 123.8655 0001455 100.6706 259.4450 15.08869370 61557
Source of the keplerian elements: AFSPC